Retour au catalogue

THORAD AGENA D DEB

ActifSSO
NORAD 10136·DEBRIS·🇺🇸 United States

Lancé Apr 8, 1970 depuis Vandenberg Space Force Base

Loading…

Prochains Passages (prochaines 24 heures)

TLE

FraisSource: Space-Track

Époque: Sep 14, 2026, 10:06 UTC

1 10136U 70025NQ  26257.42097554  .00000002  00000-0  75352-4 0  9991
2 10136 100.1762 235.6072 0001664 114.7302  48.7989 13.52045021782555

Suivez THORAD AGENA D DEB en temps réel avec AllMySat

Download on the App Store